User: anonymous   Login
Location: Chervonnoye
(48.6000°N, 34.4000°E)
Time: 03:21:04
(UTC+00:00)
Language:

JY1SAT - Orbit

View from above orbital plane
View from above orbital plane
View from above satellite
View from above satellite

Ground track
Ground track

The orbit data is extracted from the following two-line orbital elements,

1 43803U 18099AX  21339.43078129  .00000523  00000-0  51463-4 0  9990
2 43803  97.6462  46.2257 0014594 192.9353 167.1496 14.96139031164052
Epoch (UTC): 05 December 2021 10:20:19
Eccentricity: 0.0014594
inclination: 97.6462°
perigee height: 568 km
apogee height: 589 km
right ascension of ascending node: 46.2257°
argument of perigee: 192.9353°
revolutions per day: 14.96139031
mean anomaly at epoch: 167.1496°
orbit number at epoch: 16405

The dashed part of the orbit path shows where the satellite is in the earth's shadow,  

DLR